Flag for U.S.A. Weather past 2 weeks in Kilgore, Texas, U.S.A.

Now
82 °F

Clear.


Feels Like: 88 °F
Forecast: 75 / 93 °F
Wind: No wind

Location: Gregg County Airport

Current Time: Jul 25, 2014 at 11:04:07 PM

Latest Report: Jul 25, 2014 at 9:53 PM


Visibility: 10 mi

Pressure: 29.95 "Hg

Humidity: 77%

Dew point: 74 °F

Location of KilgoreLocation

Historic Weather in Kilgore — Graph

°F

Kilgore temperature yesterday

Maximum temperature yesterday: 87 °F (at 1:53 PM)
Minimum temperature yesterday: 69 °F (at 2:53 AM)
Average temperature yesterday: 77 °F

Past Weeks' High & Low Weather Summary

 TemperatureHumidityPressure
High97 °F (Jul 13, 2:53 PM)96% (Jul 24, 5:53 AM)30.15 "Hg (Jul 24, 5:53 AM)
Low64 °F (Jul 18, 9:03 AM)39% (Jul 13, 3:53 PM)29.88 "Hg (Jul 14, 4:53 PM)
Average78 °F74%30.00 "Hg
* Reported Jul 10 9:53 PM — Jul 25 9:53 PM, Kilgore, Weather by CustomWeather, © 2014

Note: Actual official high and low records may vary slightly from our data, if they occured in-between our weather recording intervals... More about our weather records

Advertising

Kilgore weather history for previous 24 hours

 ConditionsComfort  
Time TempWeatherWind HumidityBarometerVisibility
9:53 PM
Jul 25
82 °FClear.No wind77%29.95 "Hg10 mi
8:53 PM81 °FSunny.3 mph82%29.94 "Hg10 mi
7:53 PM87 °FSunny.3 mph65%29.93 "Hg10 mi
6:53 PM90 °FSunny.5 mph54%29.93 "Hg10 mi
5:53 PM92 °FPassing clouds.7 mph49%29.93 "Hg10 mi
4:53 PM92 °FSunny.6 mph49%29.94 "Hg10 mi
3:53 PM93 °FScattered clouds.8 mph50%29.95 "Hg10 mi
2:53 PM91 °FPassing clouds.5 mph52%29.96 "Hg10 mi
1:53 PM92 °FPassing clouds.5 mph51%29.98 "Hg10 mi
12:53 PM88 °FScattered clouds.6 mph61%30.00 "Hg10 mi
11:53 AM88 °FPartly sunny.6 mph61%30.02 "Hg10 mi
10:53 AM85 °FScattered clouds.8 mph68%30.03 "Hg9 mi
9:53 AM82 °FPassing clouds.5 mph77%30.02 "Hg9 mi
8:53 AM78 °FFog.6 mph87%30.02 "Hg6 mi
7:53 AM75 °FFog.3 mph90%30.01 "Hg5 mi
6:53 AM71 °FFog.No wind93%30.00 "Hg5 mi
5:53 AM71 °FFog.No wind90%29.99 "Hg3 mi
4:53 AM70 °FFog.No wind93%30.00 "Hg6 mi
3:53 AM72 °FFog.No wind91%29.99 "Hg5 mi
2:53 AM71 °FFog.No wind90%29.99 "Hg6 mi
1:53 AM72 °FFog.No wind91%30.00 "Hg6 mi
12:53 AM73 °FClear.No wind90%30.00 "Hg7 mi
11:53 PM
Jul 24
73 °FClear.3 mph90%29.99 "Hg7 mi
Weather by CustomWeather, © 2014

See weather overviewHow to use our weather pages